TimeCDT,TemperatureF,Dew PointF,Humidity,Sea Level PressureIn,VisibilityMPH,Wind Direction,Wind SpeedMPH,Gust SpeedMPH,PrecipitationIn,Events,Conditions,WindDirDegrees,DateUTC
12:15 AM,42.8,28.4,57,29.89,10.0,ESE,17.3,25.3,N/A,,Overcast,120,2013-04-06 05:15:00
12:35 AM,42.8,28.4,57,29.89,10.0,ESE,16.1,26.5,N/A,,Overcast,120,2013-04-06 05:35:00
12:55 AM,42.8,28.4,57,29.89,10.0,ESE,17.3,23.0,N/A,,Overcast,120,2013-04-06 05:55:00
1:15 AM,42.8,28.4,57,29.88,10.0,SE,17.3,24.2,N/A,,Overcast,130,2013-04-06 06:15:00
1:35 AM,42.8,28.4,57,29.88,10.0,SE,18.4,24.2,N/A,,Overcast,130,2013-04-06 06:35:00
1:55 AM,42.8,28.4,57,29.87,10.0,SE,20.7,31.1,N/A,,Mostly Cloudy,130,2013-04-06 06:55:00
2:15 AM,41.0,28.4,61,29.87,10.0,SE,21.9,27.6,N/A,,Mostly Cloudy,130,2013-04-06 07:15:00
2:35 AM,41.0,26.6,57,29.85,10.0,SE,20.7,28.8,N/A,,Mostly Cloudy,130,2013-04-06 07:35:00
2:55 AM,39.2,26.6,61,29.84,10.0,SE,18.4,29.9,N/A,,Scattered Clouds,130,2013-04-06 07:55:00
3:15 AM,39.2,26.6,61,29.83,10.0,SE,23.0,31.1,N/A,,Partly Cloudy,130,2013-04-06 08:15:00
3:35 AM,39.2,26.6,61,29.81,10.0,SE,23.0,28.8,N/A,,Partly Cloudy,130,2013-04-06 08:35:00
3:55 AM,39.2,26.6,61,29.80,10.0,SE,19.6,28.8,N/A,,Clear,130,2013-04-06 08:55:00
4:15 AM,39.2,26.6,61,29.78,10.0,SE,23.0,29.9,N/A,,Clear,130,2013-04-06 09:15:00
4:35 AM,39.2,24.8,56,29.78,10.0,SE,23.0,29.9,N/A,,Partly Cloudy,130,2013-04-06 09:35:00
4:55 AM,39.2,26.6,61,29.77,10.0,SE,21.9,32.2,N/A,,Scattered Clouds,130,2013-04-06 09:55:00
5:15 AM,37.4,26.6,65,29.77,10.0,SE,19.6,27.6,N/A,,Partly Cloudy,130,2013-04-06 10:15:00
5:55 AM,37.4,26.6,65,29.76,10.0,SE,17.3,24.2,N/A,,Clear,140,2013-04-06 10:55:00
6:15 AM,37.4,26.6,65,29.75,10.0,SE,18.4,24.2,N/A,,Clear,140,2013-04-06 11:15:00
6:35 AM,37.4,26.6,65,29.74,10.0,SE,17.3,-,N/A,,Clear,140,2013-04-06 11:35:00
6:55 AM,39.2,26.6,61,29.73,10.0,SE,17.3,24.2,N/A,,Clear,140,2013-04-06 11:55:00
7:15 AM,39.2,28.4,65,29.72,10.0,SE,16.1,23.0,N/A,,Mostly Cloudy,130,2013-04-06 12:15:00
7:35 AM,39.2,28.4,65,29.71,10.0,SE,19.6,26.5,N/A,,Mostly Cloudy,140,2013-04-06 12:35:00
7:55 AM,39.2,28.4,65,29.70,10.0,SE,18.4,-,N/A,,Mostly Cloudy,140,2013-04-06 12:55:00
8:15 AM,41.0,28.4,61,29.70,10.0,SE,16.1,23.0,N/A,,Mostly Cloudy,140,2013-04-06 13:15:00
8:35 AM,41.0,30.2,65,29.69,10.0,SSE,15.0,21.9,N/A,,Mostly Cloudy,150,2013-04-06 13:35:00
8:55 AM,42.8,32.0,66,29.67,10.0,SE,16.1,25.3,N/A,,Clear,140,2013-04-06 13:55:00
9:15 AM,44.6,32.0,61,29.66,10.0,SE,18.4,-,N/A,,Clear,140,2013-04-06 14:15:00
9:55 AM,48.2,35.6,62,29.63,10.0,SSE,15.0,21.9,N/A,,Clear,150,2013-04-06 14:55:00
10:15 AM,51.8,37.4,58,29.62,10.0,South,19.6,27.6,N/A,,Clear,170,2013-04-06 15:15:00
10:35 AM,55.4,39.2,54,29.61,10.0,South,21.9,29.9,N/A,,Clear,170,2013-04-06 15:35:00
10:55 AM,57.2,41.0,55,29.60,10.0,South,24.2,32.2,N/A,,Clear,180,2013-04-06 15:55:00
11:15 AM,59.0,41.0,51,29.59,10.0,South,25.3,35.7,N/A,,Clear,180,2013-04-06 16:15:00
11:35 AM,59.0,41.0,51,29.58,10.0,South,28.8,34.5,N/A,,Clear,190,2013-04-06 16:35:00
11:55 AM,60.8,42.8,52,29.58,10.0,SSW,26.5,35.7,N/A,,Scattered Clouds,200,2013-04-06 16:55:00
12:15 PM,59.0,42.8,55,29.58,10.0,SSW,24.2,34.5,N/A,,Scattered Clouds,200,2013-04-06 17:15:00
12:35 PM,59.0,42.8,55,29.58,10.0,SSW,19.6,28.8,N/A,,Partly Cloudy,210,2013-04-06 17:35:00
12:55 PM,59.0,42.8,55,29.57,10.0,SSW,15.0,25.3,N/A,,Clear,210,2013-04-06 17:55:00
1:15 PM,59.0,42.8,55,29.58,10.0,SW,18.4,28.8,N/A,,Scattered Clouds,220,2013-04-06 18:15:00
1:35 PM,57.2,42.8,59,29.57,10.0,SSW,18.4,25.3,N/A,,Overcast,200,2013-04-06 18:35:00
1:55 PM,53.6,46.4,77,29.57,2.5,SSW,17.3,28.8,N/A,,Haze,200,2013-04-06 18:55:00
2:15 PM,53.6,46.4,77,29.55,8.0,South,13.8,-,N/A,Rain,Light Rain,180,2013-04-06 19:15:00
2:55 PM,53.6,46.4,77,29.56,5.0,SSW,10.4,-,0.01,Rain,Light Rain,200,2013-04-06 19:55:00
3:15 PM,53.6,48.2,82,29.55,9.0,South,10.4,-,N/A,,Overcast,190,2013-04-06 20:15:00
3:35 PM,51.8,48.2,88,29.55,9.0,SSW,10.4,-,N/A,,Overcast,200,2013-04-06 20:35:00
3:55 PM,51.8,48.2,88,29.56,2.0,SW,11.5,-,0.02,Rain,Light Rain,230,2013-04-06 20:55:00
4:15 PM,51.8,48.2,88,29.55,2.0,SW,12.7,-,N/A,,Overcast,220,2013-04-06 21:15:00
4:35 PM,51.8,50.0,94,29.52,2.5,SSW,5.8,-,N/A,Rain,Light Rain,200,2013-04-06 21:35:00
4:55 PM,51.8,50.0,94,29.55,6.0,WSW,11.5,-,0.03,,Overcast,250,2013-04-06 21:55:00
5:15 PM,51.8,48.2,88,29.57,8.0,West,18.4,25.3,N/A,,Overcast,260,2013-04-06 22:15:00
5:35 PM,50.0,46.4,87,29.58,6.0,West,19.6,-,N/A,,Overcast,260,2013-04-06 22:35:00
5:55 PM,48.2,44.6,87,29.59,6.0,West,17.3,26.5,0.01,,Overcast,270,2013-04-06 22:55:00
6:15 PM,48.2,44.6,87,29.60,4.0,West,17.3,23.0,N/A,,Overcast,280,2013-04-06 23:15:00
6:35 PM,48.2,44.6,87,29.60,5.0,WNW,20.7,27.6,N/A,,Overcast,290,2013-04-06 23:35:00
6:55 PM,46.4,44.6,93,29.61,4.0,WNW,23.0,31.1,N/A,,Overcast,300,2013-04-06 23:55:00
7:15 PM,46.4,42.8,87,29.62,3.0,WNW,19.6,28.8,N/A,,Overcast,300,2013-04-07 00:15:00
7:35 PM,44.6,42.8,93,29.62,3.0,WNW,18.4,26.5,N/A,,Overcast,300,2013-04-07 00:35:00
7:55 PM,44.6,42.8,93,29.63,4.0,WNW,15.0,20.7,N/A,,Overcast,300,2013-04-07 00:55:00
8:15 PM,46.4,42.8,87,29.64,6.0,WNW,17.3,24.2,N/A,,Overcast,300,2013-04-07 01:15:00
8:35 PM,46.4,42.8,87,29.66,6.0,WNW,18.4,-,N/A,,Overcast,300,2013-04-07 01:35:00
8:55 PM,46.4,41.0,81,29.66,7.0,WNW,18.4,-,N/A,,Overcast,300,2013-04-07 01:55:00
9:15 PM,44.6,41.0,87,29.68,-9999.0,NW,21.9,-,N/A,,Overcast,310,2013-04-07 02:15:00
9:35 PM,44.6,39.2,81,29.69,9.0,NW,17.3,27.6,N/A,,Overcast,310,2013-04-07 02:35:00
9:55 PM,44.6,39.2,81,29.71,8.0,NW,16.1,23.0,N/A,,Overcast,310,2013-04-07 02:55:00
10:15 PM,44.6,39.2,81,29.71,8.0,NW,19.6,-,N/A,,Overcast,310,2013-04-07 03:15:00
10:35 PM,42.8,39.2,87,29.72,8.0,NW,15.0,-,N/A,,Overcast,310,2013-04-07 03:35:00
11:15 PM,41.0,35.6,81,29.74,10.0,NW,20.7,28.8,N/A,,Scattered Clouds,320,2013-04-07 04:15:00
11:35 PM,41.0,35.6,81,29.74,10.0,NW,18.4,27.6,N/A,,Mostly Cloudy,310,2013-04-07 04:35:00
11:55 PM,41.0,35.6,81,29.75,10.0,NW,13.8,20.7,N/A,,Overcast,320,2013-04-07 04:55:00